Location: Vihti�l�
(61.3833°N, 23.0667°E)
Time: 04:07:44
(UTC+00:00)

ARIANE 5 R/B - Pass Details

Date: 29 November 2020
Orbit: 749 x 794 km, 98.6° (Epoch: 19 January)

Event Time Altitude Azimuth Distance (km) Brightness Sun altitude
Rises 03:31:11 0° 19° (NNE) 3,269 6.0 -24.1°
Reaches altitude 10° 03:33:42 10° 10° (N) 2,346 5.1 -23.8°
Enters shadow 03:36:33 26° 342° (NNW) 1,530 3.8 -23.5°
